Weather History for Managua, Nicaragua

Change the Weather History Date:

Saturday, February 23, 2013

  Actual Average Record
Temperature  
Mean Temperature 84 °F -  
Max Temperature 95 °F 91 °F 96 °F (1998)
Min Temperature 73 °F 70 °F 69 °F (1999)
Cooling Degree Days 19    
Growing Degree Days 34 (Base 50)    
Moisture  
Dew Point 68 °F    
Average Humidity 64    
Maximum Humidity 83    
Minimum Humidity 39    
Precipitation  
Precipitation 0.00 in - - ()
Sea Level Pressure  
Sea Level Pressure 29.83 in    
Wind  
Wind Speed 8 mph ()    
Max Wind Speed 18 mph    
Max Gust Speed -    
Visibility 6.2 miles    
Events      
Averages and records for this station are not official NWS values.
T = Trace of Precipitation, MM = Missing Value Source: Averaged Metar Reports

Daily Weather History Graph

Daily Weather History Graph

Search for Another Location

Airport:

Trip Planner

Search our weather history database for the weather conditions in past years. The results will help you decide how hot, cold, wet, or windy it might be!

Date:

Astronomy

Feb. 23, 2013 Rise Set
Actual Time 6:02 AM CST 5:53 PM CST
Civil Twilight 5:41 AM CST 6:14 PM CST
Nautical Twilight 5:16 AM CST 6:39 PM CST
Astronomical Twilight 4:52 AM CST 7:04 PM CST
Moon 4:12 PM CST (2/23) 4:11 AM CST (2/23)
Length of Visible Light 12h 33m
Length of Day
11h 50m
Waxing Gibbous, 95% of the Moon is Illuminated
Feb 23
Waxing Gibbous
Feb 25
Full
Mar 4
Last Quarter
Mar 11
New
Mar 19
First Quarter

Hourly Weather History & Observations

Time (CST) Temp. Heat Index Dew Point Humidity Pressure Visibility Wind Dir Wind Speed Gust Speed Precip Events Conditions
12:00 AM 75.2 °F - 68.0 °F 78% 29.86 in 6.2 mi East 6.9 mph - N/A   Partly Cloudy
1:00 AM 73.4 °F - 68.0 °F 83% 29.86 in 6.2 mi East 4.6 mph - N/A   Partly Cloudy
2:00 AM 75.2 °F - 68.0 °F 78% 29.83 in 6.2 mi East 6.9 mph - N/A   Partly Cloudy
3:00 AM 75.2 °F - 68.0 °F 78% 29.83 in 6.2 mi East 6.9 mph - N/A   Partly Cloudy
4:00 AM 75.2 °F - 68.0 °F 78% 29.80 in 6.2 mi Calm Calm - N/A   Partly Cloudy
5:00 AM 73.4 °F - 64.4 °F 73% 29.83 in 6.2 mi East 4.6 mph - N/A   Partly Cloudy
6:00 AM 73.4 °F - 68.0 °F 83% 29.83 in 6.2 mi ESE 4.6 mph - N/A   Partly Cloudy
7:00 AM 75.2 °F - 68.0 °F 78% 29.86 in 6.2 mi East 4.6 mph - N/A   Partly Cloudy
7:45 AM 75.2 °F - 68.0 °F 78% 29.86 in 6.2 mi East 4.6 mph - N/A   Partly Cloudy
8:00 AM 80.6 °F 83.9 °F 69.8 °F 70% 29.86 in 6.2 mi East 6.9 mph - N/A   Partly Cloudy
9:00 AM 84.2 °F 87.3 °F 68.0 °F 58% 29.89 in 6.2 mi East 9.2 mph - N/A   Partly Cloudy
10:00 AM 87.8 °F 90.4 °F 66.2 °F 49% 29.89 in 6.2 mi East 11.5 mph - N/A   Scattered Clouds
11:00 AM 87.8 °F 91.4 °F 68.0 °F 52% 29.86 in 6.2 mi East 13.8 mph - N/A   Scattered Clouds
12:00 PM 89.6 °F 92.2 °F 66.2 °F 46% 29.83 in 6.2 mi ENE 16.1 mph - N/A   Scattered Clouds
1:00 PM 93.2 °F 96.2 °F 66.2 °F 41% 29.80 in 6.2 mi East 18.4 mph - N/A   Partly Cloudy
2:00 PM 93.2 °F 96.2 °F 66.2 °F 41% 29.77 in 6.2 mi East 16.1 mph - N/A   Partly Cloudy
3:00 PM 95.0 °F 98.5 °F 66.2 °F 39% 29.77 in 6.2 mi ESE 16.1 mph - N/A   Partly Cloudy
4:00 PM 93.2 °F 96.2 °F 66.2 °F 41% 29.74 in 6.2 mi East 13.8 mph - N/A   Partly Cloudy
5:00 PM 89.6 °F 92.2 °F 66.2 °F 46% 29.74 in 6.2 mi East 13.8 mph - N/A   Partly Cloudy
6:00 PM 86.0 °F 90.4 °F 69.8 °F 58% 29.77 in 6.2 mi ESE 16.1 mph - N/A   Partly Cloudy
7:00 PM 84.2 °F 89.6 °F 71.6 °F 66% 29.80 in 6.2 mi ESE 11.5 mph - N/A   Partly Cloudy
8:00 PM 82.4 °F 87.2 °F 71.6 °F 70% 29.83 in 6.2 mi ESE 13.8 mph - N/A   Partly Cloudy
9:00 PM 82.4 °F 87.2 °F 71.6 °F 70% 29.83 in 6.2 mi East 9.2 mph - N/A   Partly Cloudy
10:00 PM 80.6 °F 83.9 °F 69.8 °F 70% 29.86 in - East 9.2 mph - N/A   Clear
11:00 PM 78.8 °F - 69.8 °F 74% 29.86 in - ESE 9.2 mph - N/A   Clear